Regional Weather Roundup
Issued by NWS

Home | Current Version | Previous Version | Graphics & Text | Print | Product List | Glossary On
Versions: 1 2 3 4 5 6 7 8 9 10 11 12 13 14 15 16 17 18 19 20 21 22 23 24 25 26 27 28 29 30 31 32 33 34 35 36 37 38 39 40 41 42 43 44 45 46 47 48 49 50
000
ASUS43 KDMX 221901
RWRIA

WEATHER ROUNDUP FOR IOWA
NATIONAL WEATHER SERVICE DES MOINES IA
100 PM CST THU FEB 22 2018

NOTE: "FAIR" INDICATES FEW OR NO CLOUDS BELOW 12,000 FEET WITH NO
SIGNIFICANT WEATHER AND/OR OBSTRUCTIONS TO VISIBILITY.

* - THESE STATIONS ARE NOT NWS STATIONS...THUS NOT UNDER NWS
QUALITY CONTROL.  THEY ALSO DO NOT REPORT WEATHER SUCH
AS PRECIPITATION OR FOG.

IAZ001>003-012>014-020>022-031>034-043>046-222000-
   NORTHWEST IOWA

CITY           SKY/WX    TMP DP  RH WIND       PRES   REMARKS
CARROLL *      CLOUDY    27  27 100 SE10G16   30.34F FOG     WCI  17
CHEROKEE *     CLOUDY    27  23  85 E12       30.32F FOG     WCI  17
DENISON *      PTSUNNY   27  25  93 SE9       30.34F FOG     WCI  17
LE MARS *      MIX PCPN  27  25  93 SE12      30.32F WCI  16
ORANGE CITY *  LGT SNOW  28  25  86 E10       30.31F WCI  19
SHELDON *      MOSUNNY   28  21  74 E12G17    30.30F WCI  18
SIOUX CITY     CLOUDY    26  23  88 E8        30.32F FOG     WCI  18
SPENCER        FLURRIES  29  21  72 E16       30.34F WCI  17
STORM LAKE *   MIX PCPN  25  23  93 E16       30.31F WCI  12
$$

IAZ055>058-069>071-079>083-090>094-222000-
   SOUTHWEST IOWA

CITY           SKY/WX    TMP DP  RH WIND       PRES   REMARKS
ATLANTIC *     PTSUNNY   28  28 100 E7        30.32F FOG     WCI  21
AUDUBON *      MIX PCPN  27  25  93 SE12      30.33F WCI  16
CLARINDA *     CLOUDY    30  30 100 SE8       30.37F FOG     WCI  23
COUNCIL BLFS * CLOUDY    27  27 100 SE9       30.30F FOG     WCI  17
CRESTON *      CLOUDY    30  28  93 SE9       30.34S FOG     WCI  22
HARLAN  *      CLOUDY    27  27 100 SE10      30.36F FOG     WCI  17
LAMONI         CLOUDY    30  28  92 SE7       30.35S FOG     WCI  23
RED OAK *      CLOUDY    30  28  93 MISG      30.33F FOG
SHENANDOAH *   CLOUDY    30  28  93 SE9       30.35F WCI  22
$$

IAZ047>049-059>061-072>074-084-222000-
   CENTRAL IOWA

CITY           SKY/WX    TMP DP  RH WIND       PRES   REMARKS
AMES           CLOUDY    30  25  81 E9        30.35F WCI  22
ANKENY *       MIX PCPN  30  28  93 SE7       30.37F WCI  23
BOONE *        CLOUDY    28  27  93 E14       30.33F FOG     WCI  17
CHARITON *     CLOUDY    30  30 100 E8G15     30.35F FOG     WCI  23
DES MOINES     FRZ RAIN  29  27  92 E10       30.36F FOG     WCI  20
GRINNELL*      CLOUDY    32  27  80 E10       30.39F WCI  24
KNOXVILLE *    CLOUDY    30  30 100 E8G15     30.34F FOG     WCI  23
MARSHALLTOWN   CLOUDY    32  25  75 E17       30.36F WCI  21
NEWTON *       FOG       30  30 100 E13       30.35F VSB 1   WCI  20
PELLA *        MIX PCPN  31  30  95 E8        30.37F VSB 1   WCI  24
PERRY *        CLOUDY    28  28  97 E12       30.36F FOG     WCI  18
$$

IAZ004>006-015-016-023>025-035-036-222000-
   NORTH CENTRAL IOWA

CITY           SKY/WX    TMP DP  RH WIND       PRES   REMARKS
CLARION *      CLOUDY    28  28 100 E17       30.36F FOG     WCI  16
ESTHERVILLE    CLOUDY    27  21  78 E12       30.37F WCI  17
FORT DODGE *   FLURRIES  29  24  82 E14       30.35F WCI  18
MASON CITY     CLOUDY    28  19  69 E14       30.41F WCI  17
FOREST CITY *  CLOUDY    30  23  74 E6        30.39F WCI  24
WEBSTER CITY * LGT SNOW  28  25  86 E16       30.34F WCI  17
IOWA FALLS *   CLOUDY    31  25  78 E12       30.38F WCI  21
$$

IAZ007>011-017>019-026>030-037>042-050>054-066-222000-
   NORTHEAST IOWA

CITY           SKY/WX    TMP DP  RH WIND       PRES   REMARKS
CEDAR RAPIDS   CLOUDY    34  26  72 E15       30.36F WCI  24
CHARLES CITY * CLOUDY    30  19  64 E13       30.41F WCI  20
CLINTON *      CLOUDY    35  28  75 E17       30.42F WCI  25
DECORAH *      FAIR      30  16  55 E13       30.44F WCI  20
DUBUQUE        CLOUDY    32  22  66 E13       30.43F WCI  22
MONTICELLO *   CLOUDY    34  25  69 E13       30.41F WCI  25
OELWEIN *      CLOUDY    32  25  74 E10       30.42F WCI  24
WATERLOO       CLOUDY    32  23  69 E17       30.40F WCI  21
$$

IAZ064-065-067-068-078-222000-
   EAST CENTRAL IOWA

CITY           SKY/WX    TMP DP  RH WIND       PRES   REMARKS
DAVENPORT      CLOUDY    37  28  70 E15       30.42F WCI  28
IOWA CITY      CLOUDY    35  27  72 E16G23    30.39F WCI  25
MT. PLEASANT * CLOUDY    32  32 100 E10       30.35F FOG     WCI  24
MUSCATINE *    CLOUDY    36  30  80 E13       30.38F WCI  27
QUAD CITIES    CLOUDY    38  30  73 E18       30.40F WCI  28
$$

IAZ062-063-075>077-085>089-095>099-222000-
   SOUTHEAST IOWA

CITY           SKY/WX    TMP DP  RH WIND       PRES   REMARKS
BURLINGTON     CLOUDY    36  32  85 E10       30.34F WCI  28
FAIRFIELD *    CLOUDY    32  32 100 E12       30.35F FOG     WCI  23
FORT MADISON * CLOUDY    36  34  93 E12       30.34F FOG     WCI  27
KEOKUK *       CLOUDY    34  34 100 E9G16     30.34F FOG     WCI  26
OSKALOOSA *    DRIZZLE   31  30  96 E7        30.36F WCI  24
OTTUMWA        MIX PCPN  32  30  92 E12       30.35F FOG     WCI  23
WASHINGTON *   PTSUNNY   34  34 100 E13       30.38F FOG     WCI  25
$$

ABBREVIATIONS USED IN REMARKS
   TC - TEMPERATURES IN CELSIUS
  WCI - WIND CHILL INDEX
   HX - HEAT INDEX
  VSB - VISIBILITY
$$




USA.gov is the U.S. government's official web portal to all federal, state and local government web resources and services.